TimeCST,TemperatureF,Dew PointF,Humidity,Sea Level PressureIn,VisibilityMPH,Wind Direction,Wind SpeedMPH,Gust SpeedMPH,PrecipitationIn,Events,Conditions,WindDirDegrees,DateUTC
12:53 AM,61.0,57.0,87,30.23,10.0,ENE,8.1,-,N/A,,Overcast,70,2013-01-09 06:53:00
1:53 AM,61.0,57.0,87,30.22,10.0,ENE,8.1,-,N/A,,Overcast,70,2013-01-09 07:53:00
2:53 AM,61.0,57.0,87,30.22,10.0,ENE,6.9,-,N/A,,Overcast,70,2013-01-09 08:53:00
3:31 AM,60.8,57.2,88,30.23,10.0,ENE,4.6,-,N/A,,Overcast,70,2013-01-09 09:31:00
3:53 AM,61.0,57.9,90,30.22,10.0,ENE,6.9,-,N/A,,Overcast,70,2013-01-09 09:53:00
4:53 AM,61.0,57.9,90,30.24,9.0,ENE,11.5,-,N/A,,Overcast,60,2013-01-09 10:53:00
6:12 AM,60.8,57.2,88,30.26,7.0,ENE,9.2,-,N/A,,Overcast,70,2013-01-09 12:12:00
6:53 AM,60.1,57.9,93,30.28,8.0,ENE,6.9,-,N/A,,Overcast,70,2013-01-09 12:53:00
7:53 AM,60.1,57.9,93,30.31,8.0,ENE,9.2,-,N/A,,Overcast,60,2013-01-09 13:53:00
8:46 AM,60.8,59.0,94,30.32,8.0,East,8.1,-,N/A,,Overcast,90,2013-01-09 14:46:00
8:53 AM,61.0,59.0,93,30.32,8.0,East,8.1,-,N/A,,Overcast,80,2013-01-09 14:53:00
9:53 AM,62.1,59.0,90,30.32,7.0,ENE,10.4,-,N/A,,Overcast,70,2013-01-09 15:53:00
10:53 AM,64.0,59.0,84,30.30,9.0,East,8.1,-,N/A,,Overcast,80,2013-01-09 16:53:00
11:51 AM,66.2,60.8,83,30.28,10.0,East,6.9,-,N/A,,Overcast,80,2013-01-09 17:51:00
11:53 AM,66.0,60.1,81,30.28,10.0,East,6.9,-,N/A,,Overcast,80,2013-01-09 17:53:00
12:53 PM,66.9,61.0,81,30.26,10.0,East,8.1,-,N/A,,Overcast,80,2013-01-09 18:53:00
1:22 PM,68.0,62.6,83,30.25,10.0,ENE,9.2,-,N/A,,Overcast,60,2013-01-09 19:22:00
1:50 PM,69.8,62.6,78,30.25,10.0,East,4.6,-,N/A,,Mostly Cloudy,100,2013-01-09 19:50:00
1:53 PM,68.0,62.1,81,30.25,10.0,East,4.6,-,N/A,,Mostly Cloudy,90,2013-01-09 19:53:00
2:53 PM,69.1,63.0,81,30.25,10.0,ENE,8.1,-,N/A,,Overcast,70,2013-01-09 20:53:00
3:53 PM,69.1,63.0,81,30.26,10.0,ENE,6.9,-,N/A,,Overcast,60,2013-01-09 21:53:00
4:10 PM,69.8,62.6,78,30.25,10.0,ENE,5.8,-,N/A,,Overcast,60,2013-01-09 22:10:00
4:53 PM,69.1,63.0,81,30.25,9.0,East,6.9,-,N/A,,Overcast,90,2013-01-09 22:53:00
5:53 PM,68.0,64.0,87,30.27,10.0,East,5.8,-,N/A,,Overcast,80,2013-01-09 23:53:00
7:49 PM,66.2,62.6,88,30.30,10.0,ENE,5.8,-,N/A,,Mostly Cloudy,70,2013-01-10 01:49:00
7:53 PM,66.0,63.0,90,30.30,10.0,ENE,5.8,-,N/A,,Mostly Cloudy,70,2013-01-10 01:53:00
8:44 PM,64.4,62.6,94,30.31,10.0,ENE,5.8,-,N/A,,Mostly Cloudy,60,2013-01-10 02:44:00
8:53 PM,66.0,63.0,90,30.31,10.0,ENE,5.8,-,N/A,,Mostly Cloudy,70,2013-01-10 02:53:00
9:20 PM,66.2,62.6,88,30.32,10.0,East,5.8,-,N/A,,Mostly Cloudy,90,2013-01-10 03:20:00
9:53 PM,64.9,63.0,93,30.31,10.0,East,6.9,-,N/A,,Partly Cloudy,80,2013-01-10 03:53:00
10:53 PM,64.9,63.0,93,30.31,8.0,East,6.9,-,N/A,,Scattered Clouds,80,2013-01-10 04:53:00
11:00 PM,64.4,62.6,94,30.31,8.0,ENE,6.9,-,N/A,,Mostly Cloudy,70,2013-01-10 05:00:00
11:53 PM,64.9,64.0,97,30.31,6.0,East,5.8,-,N/A,,Overcast,100,2013-01-10 05:53:00